Location: Black Swamp Observatory
(41.3920°N, 84.1250°W)
Time: 21:53:46
(UTC-04:00)

Courier 1B - Visible Passes

Search period start: 17 August 2022 00:00
Search period end: 27 August 2022 00:00
Orbit: 962 x 1209 km, 28.3° (Epoch: 17 August)

Date Brightness Start Highest point End Pass type
(mag) Time Alt. Az. Time Alt. Az. Time Alt. Az.
24 Aug 9.9 06:18:29 10° S 06:22:07 14° SSE 06:25:40 10° SE visible
25 Aug 10.0 05:27:04 10° SSE 05:28:28 11° SSE 05:29:52 10° SE visible
26 Aug 9.6 06:22:33 10° SSW 06:27:56 20° SSE 06:33:13 10° ESE visible
